Change the Weather History Date:

Tuesday, October 1, 2013

  Actual Average (PASK) Record (PASK)
Temperature  
Mean Temperature 25 °F -  
Max Temperature 33 °F 36 °F 55 °F (2003)
Min Temperature 17 °F 27 °F 21 °F (2008)
Degree Days  
Heating Degree Days 40    
Moisture  
Dew Point 21 °F    
Average Humidity 75    
Maximum Humidity 93    
Minimum Humidity 60    
Precipitation  
Precipitation 0.00 in - - ()
Sea Level Pressure  
Sea Level Pressure 30.08 in    
Wind  
Wind Speed 2 mph (WNW)    
Max Wind Speed 12 mph    
Max Gust Speed -    
Visibility 10 miles    
Events      
Averages and records for this station are not official NWS values.
T = Trace of Precipitation, MM = Missing Value Source: NWS Daily Summary

Daily Weather History Graph

Daily Weather History Graph

Search for Another Location

Airport or City:

Trip Planner

Search our weather history database for the weather conditions in past years. The results will help you decide how hot, cold, wet, or windy it might be!

Date:

Astronomy

Oct. 01, 2013 Rise Set
Actual Time 8:56 AM AKDT 8:09 PM AKDT
Civil Twilight 8:05 AM AKDT 9:00 PM AKDT
Nautical Twilight 7:05 AM AKDT 10:00 PM AKDT
Astronomical Twilight 5:58 AM AKDT 11:06 PM AKDT
Moon 4:39 AM AKDT (10/1) 7:08 PM AKDT (10/1)
Length of Visible Light 12h 54m
Length of Day
11h 12m
Waning Crescent, 11% of the Moon is Illuminated
Oct 1
Waning Crescent
Oct 4
New
Oct 11
First Quarter
Oct 18
Full
Oct 26
Last Quarter

Hourly Weather History & Observations

Time (AKDT) Temp. Windchill Dew Point Humidity Pressure Visibility Wind Dir Wind Speed Gust Speed Precip Events Conditions
12:16 AM 17.6 °F 12.3 °F 14.0 °F 86% 30.08 in 10.0 mi SE 3.5 mph - N/A   Clear
12:36 AM 17.6 °F - 14.0 °F 86% 30.08 in 10.0 mi Calm Calm - N/A   Clear
12:56 AM 17.6 °F - 12.2 °F 79% 30.08 in 10.0 mi Calm Calm - N/A   Clear
1:16 AM 17.6 °F - 12.2 °F 79% 30.08 in 10.0 mi Calm Calm - N/A   Clear
1:36 AM 17.6 °F - 12.2 °F 79% 30.08 in 10.0 mi Calm Calm - N/A   Clear
1:56 AM 17.6 °F - 14.0 °F 86% 30.08 in 10.0 mi Calm Calm - N/A   Partly Cloudy
2:16 AM 17.6 °F - 12.2 °F 79% 30.08 in 10.0 mi Calm Calm - N/A   Partly Cloudy
2:36 AM 17.6 °F - 12.2 °F 79% 30.08 in 10.0 mi Calm Calm - N/A   Mostly Cloudy
2:56 AM 17.6 °F - 12.2 °F 79% 30.09 in 10.0 mi Calm Calm - N/A   Overcast
3:16 AM 17.6 °F - 15.8 °F 93% 30.09 in 10.0 mi Calm Calm - N/A   Overcast
3:36 AM 19.4 °F - 15.8 °F 86% 30.09 in 10.0 mi Calm Calm - N/A   Overcast
3:56 AM 19.4 °F - 17.6 °F 93% 30.08 in 10.0 mi Calm Calm - N/A   Overcast
4:16 AM 21.2 °F - 17.6 °F 86% 30.09 in 10.0 mi Calm Calm - N/A   Overcast
4:36 AM 21.2 °F - 17.6 °F 86% 30.09 in 10.0 mi Calm Calm - N/A   Overcast
4:56 AM 23.0 °F - 19.4 °F 86% 30.09 in 10.0 mi Calm Calm - N/A   Overcast
5:16 AM 24.8 °F - 19.4 °F 80% 30.09 in 10.0 mi Calm Calm - N/A   Overcast
5:36 AM 24.8 °F - 19.4 °F 80% 30.09 in 10.0 mi Calm Calm - N/A   Overcast
5:56 AM 24.8 °F - 21.2 °F 86% 30.09 in 10.0 mi Calm Calm - N/A   Overcast
6:16 AM 24.8 °F - 21.2 °F 86% 30.09 in 10.0 mi Calm Calm - N/A   Overcast
6:36 AM 24.8 °F 20.5 °F 19.4 °F 80% 30.08 in 10.0 mi SSE 3.5 mph - N/A   Overcast
6:56 AM 26.6 °F - 21.2 °F 80% 30.08 in 10.0 mi Calm Calm - N/A   Overcast
7:16 AM 26.6 °F - 21.2 °F 80% 30.08 in 10.0 mi Calm Calm - N/A   Overcast
7:36 AM 26.6 °F 22.6 °F 21.2 °F 80% 30.08 in 10.0 mi South 3.5 mph - N/A   Overcast
7:56 AM 26.6 °F 21.2 °F 23.0 °F 86% 30.08 in 10.0 mi SW 4.6 mph - N/A   Overcast
8:16 AM 26.6 °F - 21.2 °F 80% 30.08 in 10.0 mi Calm Calm - N/A   Overcast
8:36 AM 26.6 °F - 21.2 °F 80% 30.08 in 10.0 mi Calm Calm - N/A   Overcast
8:56 AM 26.6 °F - 21.2 °F 80% 30.08 in 10.0 mi Calm Calm - N/A   Scattered Clouds
9:16 AM 26.6 °F - 19.4 °F 74% 30.08 in 10.0 mi Calm Calm - N/A   Clear
9:36 AM 26.6 °F - 19.4 °F 74% 30.08 in 10.0 mi Calm Calm - N/A   Partly Cloudy
9:56 AM 26.6 °F - 21.2 °F 80% 30.09 in 10.0 mi Calm Calm - N/A   Partly Cloudy
10:16 AM 26.6 °F - 21.2 °F 80% 30.09 in 10.0 mi Calm Calm - N/A   Scattered Clouds
10:36 AM 26.6 °F - 21.2 °F 80% 30.09 in 10.0 mi Calm Calm - N/A   Mostly Cloudy
10:56 AM 26.6 °F - 23.0 °F 86% 30.09 in 10.0 mi Calm Calm - N/A   Mostly Cloudy
11:16 AM 26.6 °F - 23.0 °F 86% 30.09 in 10.0 mi Calm Calm - N/A   Mostly Cloudy
11:36 AM 26.6 °F 22.6 °F 24.8 °F 93% 30.09 in 10.0 mi ENE 3.5 mph - N/A   Mostly Cloudy
11:56 AM 28.4 °F 24.6 °F 24.8 °F 86% 30.09 in 10.0 mi ENE 3.5 mph - N/A   Overcast
12:16 PM 28.4 °F - 23.0 °F 80% 30.09 in 10.0 mi Calm Calm - N/A   Overcast
12:36 PM 30.2 °F - 24.8 °F 80% 30.09 in 10.0 mi Calm Calm - N/A   Overcast
12:56 PM 30.2 °F - 24.8 °F 80% 30.09 in 10.0 mi Calm Calm - N/A   Overcast
1:16 PM 30.2 °F - 24.8 °F 80% 30.09 in 10.0 mi Calm Calm - N/A   Overcast
1:36 PM 32.0 °F - 24.8 °F 75% 30.09 in 10.0 mi Calm Calm - N/A   Overcast
1:56 PM 33.8 °F 27.7 °F 24.8 °F 70% 30.09 in 10.0 mi West 6.9 mph - N/A   Overcast
2:16 PM 33.8 °F 25.3 °F 24.8 °F 70% 30.09 in 10.0 mi WNW 11.5 mph - N/A   Overcast
2:36 PM 33.8 °F 28.6 °F 24.8 °F 70% 30.08 in 10.0 mi West 5.8 mph - N/A   Overcast
2:56 PM 33.8 °F 25.8 °F 24.8 °F 70% 30.08 in 10.0 mi West 10.4 mph - N/A   Overcast
3:16 PM 33.8 °F 27.0 °F 24.8 °F 70% 30.08 in 10.0 mi West 8.1 mph - N/A   Overcast
3:36 PM 33.8 °F 27.7 °F 21.2 °F 60% 30.08 in 10.0 mi West 6.9 mph - N/A   Overcast
3:56 PM 33.8 °F 28.6 °F 23.0 °F 65% 30.08 in 10.0 mi West 5.8 mph - N/A   Overcast
4:16 PM 33.8 °F 29.6 °F 21.2 °F 60% 30.07 in 10.0 mi WNW 4.6 mph - N/A   Overcast
4:36 PM 33.8 °F 28.6 °F 23.0 °F 65% 30.07 in 10.0 mi WNW 5.8 mph - N/A   Overcast
4:56 PM 33.8 °F 28.6 °F 21.2 °F 60% 30.07 in 10.0 mi WNW 5.8 mph - N/A   Overcast
5:16 PM 33.8 °F 27.7 °F 21.2 °F 60% 30.06 in 10.0 mi West 6.9 mph - N/A   Overcast
5:36 PM 33.8 °F 29.6 °F 21.2 °F 60% 30.07 in 10.0 mi NW 4.6 mph - N/A   Overcast
5:56 PM 33.8 °F 30.8 °F 21.2 °F 60% 30.07 in 10.0 mi NNW 3.5 mph - N/A   Overcast
6:16 PM 33.8 °F 29.6 °F 21.2 °F 60% 30.07 in 10.0 mi NW 4.6 mph - N/A   Overcast
6:36 PM 33.8 °F 30.8 °F 21.2 °F 60% 30.07 in 10.0 mi NW 3.5 mph - N/A   Overcast
6:56 PM 33.8 °F - 21.2 °F 60% 30.06 in 10.0 mi Calm Calm - N/A   Overcast
7:16 PM 33.8 °F - 21.2 °F 60% 30.06 in 10.0 mi Calm Calm - N/A   Overcast
7:36 PM 33.8 °F 30.8 °F 21.2 °F 60% 30.06 in 10.0 mi WNW 3.5 mph - N/A   Overcast
7:56 PM 32.0 °F 28.7 °F 21.2 °F 64% 30.06 in 10.0 mi WNW 3.5 mph - N/A   Overcast
8:16 PM 32.0 °F 26.4 °F 23.0 °F 69% 30.07 in 10.0 mi NW 5.8 mph - N/A   Overcast
8:36 PM 30.2 °F 25.4 °F 21.2 °F 69% 30.06 in 10.0 mi NW 4.6 mph - N/A   Overcast
8:56 PM 30.2 °F 25.4 °F 23.0 °F 75% 30.06 in 10.0 mi NW 4.6 mph - N/A   Overcast
9:16 PM 30.2 °F 25.4 °F 24.8 °F 80% 30.06 in 10.0 mi WNW 4.6 mph - N/A   Overcast
9:36 PM 30.2 °F 26.7 °F 21.2 °F 69% 30.06 in 10.0 mi NW 3.5 mph - N/A   Overcast
9:56 PM 30.2 °F - 23.0 °F 75% 30.07 in 10.0 mi Calm Calm - N/A   Overcast
10:16 PM 30.2 °F 26.7 °F 24.8 °F 80% 30.07 in 10.0 mi NW 3.5 mph - N/A   Overcast
10:36 PM 30.2 °F - 23.0 °F 75% 30.07 in 10.0 mi Calm Calm - N/A   Overcast
10:56 PM 30.2 °F - 21.2 °F 69% 30.07 in 10.0 mi Calm Calm - N/A   Overcast
11:16 PM 30.2 °F - 19.4 °F 64% 30.07 in 10.0 mi Calm Calm - N/A   Overcast
11:36 PM 30.2 °F - 19.4 °F 64% 30.07 in 10.0 mi Calm Calm - N/A   Overcast
11:56 PM 30.2 °F - 19.4 °F 64% 30.07 in 10.0 mi Calm Calm - N/A   Overcast